This is the latest recevied weather packets stored in our database for station/object KC3BHK-2. If no packets are shown the sender has not sent any weather packets the latest 1 day(s).
| Time | Temp. | Humidity | Pressure | Rain* | Wind** | Luminosity | Snow |
|---|---|---|---|---|---|---|---|
| 1778085162 | 18.33° C | - | - | 0 mm | 3.58 m/s, 170° | - | - |
| 1778082106 | 16.67° C | - | - | 0 mm | 5.36 m/s, 169° | - | - |
| 1778081801 | 16.11° C | - | - | 0 mm | 4.02 m/s, 200° | - | - |
| 1778081496 | 16.67° C | - | - | 0 mm | 3.13 m/s, 177° | - | - |
| 1778080274 | 16.67° C | - | - | 0 mm | 6.26 m/s, 117° | - | - |
| 1778078746 | 15.56° C | - | - | 0 mm | 3.58 m/s, 158° | - | - |
| 1778077832 | 15.56° C | - | - | 0 mm | 3.58 m/s, 174° | - | - |
| 1778076305 | 15.56° C | - | - | 0 mm | 3.13 m/s, 184° | - | - |
| 1778076000 | 15° C | - | - | 0 mm | 2.24 m/s, 167° | - | - |
| 1778075695 | 15.56° C | - | - | 0 mm | 4.47 m/s, 177° | - | - |
| 1778074473 | 15.56° C | - | - | 0 mm | 2.24 m/s, 146° | - | - |
| 1778074168 | 15.56° C | - | - | 0 mm | 4.92 m/s, 158° | - | - |
| 1778073863 | 15.56° C | - | - | 0 mm | 4.02 m/s, 160° | - | - |
| 1778072946 | 15.56° C | - | - | 0 mm | 2.68 m/s, 174° | - | - |
| 1778072641 | 16.11° C | - | - | 0 mm | 2.68 m/s, 167° | - | - |
| 1778071419 | 15.56° C | - | - | 0 mm | 2.24 m/s, 190° | - | - |
| 1778070200 | 15.56° C | - | - | 0 mm | 1.34 m/s, 132° | - | - |
| 1778069892 | 15.56° C | - | - | 0 mm | 1.34 m/s, 127° | - | - |
| 1778068673 | 16.11° C | - | - | 0 mm | 1.79 m/s, 174° | - | - |
| 1778068368 | 16.11° C | - | - | 0 mm | 3.13 m/s, 167° | - | - |
| 1778067146 | 16.11° C | - | - | 0 mm | 2.68 m/s, 191° | - | - |
| 1778066840 | 16.67° C | - | - | 0 mm | 2.24 m/s, 170° | - | - |
| 1778065923 | 16.11° C | - | - | 0 mm | 2.24 m/s, 149° | - | - |
| 1778065618 | 16.67° C | - | - | 0 mm | 2.68 m/s, 124° | - | - |
| 1778065313 | 16.67° C | - | - | 0 mm | 3.13 m/s, 166° | - | - |
* Rain latest hour (hover to see other rain measurements)
** Current wind speed in m/s (hover to see current wind gust speed)